Date String (YYYY-MM-DD hh:mm:ss) UTC,Instrument flags,Ambient pressure (hPa),Sample flow (lpm),Bypass flow (lpm),Sample temperature (°C),Ambient temperature (°C),ASC tube jacket temperature (°C),LED temperature (°C),Box temperature (°C),Sample RH (%),Span deviation,Mass concentration (μg/m³),Mass concentration (μg/m³),Mass concentration (μg/m³)
DateTimeUTC,F1_M11,P_M11,Q1_M11,Q2_M11,T1_M11,T2_M11,T3_M11,T4_M11,T5_M11,U1_M11,ZSPAN_M11,X0_M11,X2_M11,X1_M11
2021-11-20 01:00:00,,0823.8,4.99,0.00,26.8,25.8,00.0,36.0,28.5,11.3,0000.0,0007.77,0003.94,0003.52
2021-11-20 01:01:00,,0823.7,5.02,0.00,26.8,25.8,00.0,35.9,28.5,11.3,0000.0,0007.77,0003.93,0003.51
2021-11-20 01:02:00,,0823.7,4.99,0.00,26.8,25.8,00.0,35.9,28.5,11.3,0000.0,0007.46,0003.90,0003.50
2021-11-20 01:03:00,,0823.8,4.99,0.00,26.8,25.7,00.0,35.9,28.5,11.3,0000.0,0007.29,0003.89,0003.48
2021-11-20 01:04:00,,0823.9,5.01,0.00,26.8,25.8,00.0,35.9,28.5,11.3,0000.0,0007.60,0003.90,0003.48
2021-11-20 01:05:00,,0823.9,5.00,0.00,26.8,25.8,00.0,35.9,28.6,11.4,0000.0,0007.45,0003.90,0003.48
2021-11-20 01:06:00,,0823.9,4.99,0.00,26.8,25.8,00.0,35.9,28.5,11.4,0000.0,0007.64,0003.89,0003.47
2021-11-20 01:07:00,,0823.9,4.99,0.00,26.7,25.8,00.0,35.9,28.5,11.3,0000.0,0007.77,0003.88,0003.46
2021-11-20 01:08:00,,0823.9,5.01,0.00,26.7,25.7,00.0,35.9,28.5,11.3,0000.0,0007.89,0003.93,0003.47
2021-11-20 01:09:00,,0823.8,5.00,0.00,26.7,25.7,00.0,35.9,28.4,11.3,0000.0,0007.96,0003.96,0003.48
2021-11-20 01:10:00,,0823.8,5.00,0.00,26.7,25.7,00.0,35.8,28.4,11.3,0000.0,0007.94,0003.96,0003.48
2021-11-20 01:11:00,,0823.8,5.01,0.00,26.7,25.7,00.0,35.8,28.4,11.1,0000.0,0007.94,0003.95,0003.48
2021-11-20 01:12:00,,0824.0,4.99,0.00,26.6,25.6,00.0,35.8,28.4,11.3,0000.0,0007.96,0003.93,0003.47
2021-11-20 01:13:00,,0824.0,5.01,0.00,26.6,25.7,00.0,35.8,28.3,11.3,0000.0,0008.05,0003.92,0003.46
2021-11-20 01:14:00,,0823.9,5.00,0.00,26.6,25.7,00.0,35.8,28.3,11.1,0000.0,0007.99,0003.90,0003.45
2021-11-20 01:15:00,,0824.0,4.98,0.00,26.6,25.6,00.0,35.8,28.3,11.1,0000.0,0007.70,0003.88,0003.43
2021-11-20 01:16:00,,0823.8,5.00,0.00,26.6,25.6,00.0,35.7,28.3,11.0,0000.0,0007.60,0003.85,0003.42
2021-11-20 01:17:00,,0823.9,5.01,0.00,26.6,25.6,00.0,35.7,28.4,10.9,0000.0,0007.53,0003.83,0003.40
2021-11-20 01:18:00,,0824.0,5.00,0.00,26.6,25.6,00.0,35.7,28.4,11.0,0000.0,0007.63,0003.81,0003.38
2021-11-20 01:19:00,,0824.0,5.00,0.00,26.6,25.7,00.0,35.7,28.3,11.1,0000.0,0007.59,0003.76,0003.37
2021-11-20 01:20:00,,0824.0,4.99,0.00,26.6,25.7,00.0,35.7,28.3,11.2,0000.0,0007.64,0003.75,0003.37
2021-11-20 01:21:00,,0824.0,5.01,0.00,26.6,25.7,00.0,35.7,28.3,11.3,0000.0,0007.59,0003.76,0003.37
2021-11-20 01:22:00,,0823.9,5.00,0.00,26.6,25.7,00.0,35.7,28.3,11.3,0000.0,0007.46,0003.77,0003.37
2021-11-20 01:23:00,,0823.8,4.98,0.00,26.6,25.7,00.0,35.7,28.3,11.0,0000.0,0007.65,0003.81,0003.39
2021-11-20 01:24:00,,0823.9,5.01,0.00,26.6,25.8,00.0,35.7,28.3,11.0,0000.0,0007.65,0003.84,0003.40
2021-11-20 01:25:00,,0823.9,4.99,0.00,26.6,25.8,00.0,35.7,28.4,11.0,0000.0,0007.61,0003.86,0003.42
2021-11-20 01:26:00,,0823.8,5.00,0.00,26.6,25.7,00.0,35.7,28.3,11.0,0000.0,0007.56,0003.86,0003.45
2021-11-20 01:27:00,,0823.8,5.00,0.00,26.6,25.7,00.0,35.7,28.3,11.0,0000.0,0007.56,0003.88,0003.46
2021-11-20 01:28:00,,0823.8,5.01,0.00,26.7,25.7,00.0,35.7,28.4,11.0,0000.0,0007.81,0003.90,0003.49
2021-11-20 01:29:00,,0823.8,5.00,0.00,26.7,25.7,00.0,35.7,28.3,11.0,0000.0,0008.08,0003.91,0003.53
2021-11-20 01:30:00,,0823.8,5.00,0.00,26.7,25.7,00.0,35.7,28.4,10.9,0000.0,0008.04,0003.95,0003.56
2021-11-20 01:31:00,,0823.8,4.98,0.00,26.7,25.8,00.0,35.7,28.4,10.9,0000.0,0008.03,0003.98,0003.58
2021-11-20 01:32:00,,0823.7,5.00,0.00,26.7,25.8,00.0,35.7,28.3,10.9,0000.0,0008.11,0004.02,0003.61
2021-11-20 01:33:00,,0823.8,4.99,0.00,26.7,25.8,00.0,35.7,28.3,10.9,0000.0,0008.11,0004.06,0003.65
2021-11-20 01:34:00,,0823.8,5.00,0.00,26.7,25.7,00.0,35.7,28.4,10.9,0000.0,0007.99,0004.05,0003.68
2021-11-20 01:35:00,,0823.8,5.01,0.00,26.7,25.7,00.0,35.7,28.4,10.9,0000.0,0007.91,0004.08,0003.70
2021-11-20 01:36:00,,0823.8,4.99,0.00,26.7,25.7,00.0,35.7,28.4,10.8,0000.0,0007.89,0004.10,0003.72
2021-11-20 01:37:00,,0823.8,5.00,0.00,26.7,25.8,00.0,35.7,28.4,10.8,0000.0,0008.01,0004.14,0003.73
2021-11-20 01:38:00,,0823.7,5.01,0.00,26.7,25.8,00.0,35.7,28.5,10.8,0000.0,0008.13,0004.19,0003.75
2021-11-20 01:39:00,,0823.7,5.01,0.00,26.7,25.9,00.0,35.8,28.6,10.8,0000.0,0008.12,0004.20,0003.76
2021-11-20 01:40:00,,0823.7,5.00,0.00,26.7,25.8,00.0,35.8,28.5,10.8,0000.0,0007.51,0004.20,0003.77
2021-11-20 01:41:00,,0823.7,5.00,0.00,26.7,25.8,00.0,35.8,28.5,10.8,0000.0,0007.50,0004.22,0003.77
2021-11-20 01:42:00,,0823.7,4.99,0.00,26.7,25.9,00.0,35.8,28.5,10.7,0000.0,0007.50,0004.23,0003.80
2021-11-20 01:43:00,,0823.7,5.01,0.00,26.7,25.8,00.0,35.8,28.4,10.8,0000.0,0007.39,0004.23,0003.81
2021-11-20 01:44:00,,0823.7,5.01,0.00,26.7,25.8,00.0,35.8,28.4,10.8,0000.0,0007.39,0004.22,0003.80
2021-11-20 01:45:00,,0823.7,5.00,0.00,26.7,25.8,00.0,35.8,28.4,10.7,0000.0,0007.60,0004.22,0003.79
2021-11-20 01:46:00,,0823.7,4.99,0.00,26.7,25.8,00.0,35.8,28.4,10.7,0000.0,0007.74,0004.19,0003.78
2021-11-20 01:47:00,,0823.7,5.00,0.00,26.7,25.8,00.0,35.8,28.4,10.8,0000.0,0007.74,0004.20,0003.79
2021-11-20 01:48:00,,0823.8,5.00,0.00,26.7,25.8,00.0,35.8,28.4,10.8,0000.0,0007.70,0004.19,0003.80
2021-11-20 01:49:00,,0823.8,5.00,0.00,26.7,25.8,00.0,35.8,28.4,10.8,0000.0,0007.68,0004.19,0003.80
2021-11-20 01:50:00,,0823.8,4.99,0.00,26.7,25.8,00.0,35.8,28.4,10.8,0000.0,0007.61,0004.18,0003.81
2021-11-20 01:51:00,,0823.8,4.99,0.00,26.7,25.8,00.0,35.8,28.5,10.8,0000.0,0007.32,0004.18,0003.82
2021-11-20 01:52:00,,0823.8,5.00,0.00,26.8,25.8,00.0,35.8,28.4,10.7,0000.0,0007.53,0004.20,0003.83
2021-11-20 01:53:00,,0823.8,4.99,0.00,26.8,25.8,00.0,35.8,28.5,10.7,0000.0,0007.50,0004.17,0003.81
2021-11-20 01:54:00,,0823.8,5.00,0.00,26.8,25.8,00.0,35.8,28.5,10.7,0000.0,0007.57,0004.19,0003.80
2021-11-20 01:55:00,,0823.8,5.00,0.00,26.8,25.8,00.0,35.8,28.5,10.8,0000.0,0007.68,0004.21,0003.80
2021-11-20 01:56:00,,0823.8,4.99,0.00,26.8,25.8,00.0,35.8,28.5,10.8,0000.0,0007.90,0004.20,0003.79
2021-11-20 01:57:00,,0823.9,5.01,0.00,26.8,25.8,00.0,35.8,28.5,10.8,0000.0,0007.61,0004.18,0003.77
2021-11-20 01:58:00,,0824.0,5.00,0.00,26.8,25.8,00.0,35.8,28.5,10.8,0000.0,0007.62,0004.17,0003.76
2021-11-20 01:59:00,,0823.9,4.99,0.00,26.8,25.8,00.0,35.8,28.5,10.8,0000.0,0007.75,0004.14,0003.74
